SM5RVH-10 Weather Reports


time (UTC)temp
C
wind
direction
speed
KPH
gust
KPH
rain 1hr
cm
rain 24hr
cm
rain mn
cm
humidity
%
barometer
mb
20260902235004 12 244 4.8 14.5 0.00 0.00 0.00 100 1009.7
20260902234504 12 244 3.2 8.0 0.00 0.00 0.00 100 1009.7
20260902234004 12 243 4.8 12.9 0.00 0.00 0.00 100 1009.8
20260902233525 12 244 6.4 12.9 0.00 0.00 0.00 100 1009.7
20260902233004 12 244 6.4 12.9 0.00 0.00 0.00 100 1009.7
20260902232525 12 245 4.8 11.3 0.00 0.00 0.00 100 1009.8
20260902232004 12 242 4.8 11.3 0.00 0.00 0.00 100 1009.8
20260902231504 12 236 3.2 11.3 0.00 0.00 0.00 100 1009.8
20260902231025 12 229 4.8 11.3 0.00 0.00 0.00 100 1009.8
20260902230504 12 213 4.8 11.3 0.00 0.00 0.00 100 1009.8
20260902230004 12 215 3.2 11.3 0.00 0.00 0.00 100 1009.8
20260902225504 12 231 3.2 11.3 0.00 0.00 0.00 100 1009.9
20260902225004 12 233 3.2 8.0 0.00 0.00 0.00 100 1009.8
20260902224504 12 235 3.2 8.0 0.00 0.00 0.00 100 1009.9
20260902224025 12 238 3.2 8.0 0.00 0.00 0.00 100 1009.8
20260902223504 12 237 3.2 11.3 0.00 0.00 0.00 100 1009.9
20260902223004 12 230 4.8 11.3 0.00 0.00 0.00 100 1009.9
20260902222525 12 221 3.2 9.7 0.00 0.00 0.00 100 1009.9
20260902222004 12 217 3.2 6.4 0.00 0.00 0.00 100 1009.9
20260902221525 13 216 3.2 6.4 0.00 0.00 0.00 100 1009.9
20260902221004 13 214 3.2 8.0 0.00 0.00 0.00 100 1009.9
20260902220525 13 225 3.2 8.0 0.00 0.00 0.00 100 1009.9
20260902220004 13 243 3.2 6.4 0.00 0.00 0.00 100 1009.8
20260902215504 13 243 3.2 6.4 0.00 0.00 0.00 100 1009.9
20260902215004 13 243 1.6 4.8 0.00 0.00 0.00 100 1009.8
20260902214504 13 243 1.6 4.8 0.00 0.00 0.00 100 1009.8
20260902214004 13 243 1.6 4.8 0.00 0.00 0.00 100 1009.9
20260902213504 13 243 1.6 3.2 0.00 0.00 0.00 100 1009.9
20260902213025 13 243 0.0 3.2 0.00 0.00 0.00 100 1009.9
20260902212504 13 243 0.0 4.8 0.00 0.00 0.00 100 1009.8
20260902212004 13 243 0.0 4.8 0.00 0.00 0.00 100 1009.8
20260902211504 13 243 0.0 4.8 0.00 0.00 0.00 100 1009.8
20260902211004 13 243 1.6 4.8 0.00 0.00 0.00 100 1009.8
20260902210504 13 243 1.6 4.8 0.00 0.00 0.00 100 1009.7
20260902210025 13 243 3.2 6.4 0.00 0.00 0.00 100 1009.7
20260902205504 13 243 1.6 6.4 0.00 0.00 0.00 100 1009.7
20260902205004 13 243 0.0 4.8 0.00 0.00 0.00 100 1009.7
20260902204504 13 243 0.0 3.2 0.00 0.00 0.00 100 1009.8
20260902204004 13 243 0.0 3.2 0.00 0.00 0.00 100 1009.7
20260902203504 14 243 0.0 3.2 0.00 0.00 0.00 100 1009.7
20260902203004 14 243 0.0 3.2 0.00 0.00 0.00 100 1009.7
20260902202504 14 243 0.0 3.2 0.00 0.00 0.00 100 1009.7
20260902202025 14 243 0.0 3.2 0.00 0.00 0.00 100 1009.7
20260902201504 15 243 1.6 3.2 0.00 0.00 0.00 100 1009.7
20260902201025 15 243 1.6 3.2 0.00 0.00 0.00 100 1009.7
20260902200504 15 243 1.6 6.4 0.00 0.00 0.00 100 1009.7
20260902200004 15 243 3.2 6.4 0.00 0.00 0.00 100 1009.8
20260902195504 15 243 3.2 8.0 0.00 0.00 0.00 100 1009.7
20260902195004 15 243 3.2 8.0 0.00 0.00 0.00 100 1009.8
20260902194505 15 244 3.2 6.4 0.00 0.00 0.00 100 1009.8
20260902194004 15 244 3.2 6.4 0.00 0.00 0.00 100 1009.9
20260902193504 15 244 3.2 6.4 0.00 0.00 0.00 100 1009.8
20260902193004 15 244 3.2 8.0 0.00 0.00 0.00 100 1009.7
20260902192504 15 244 4.8 8.0 0.00 0.00 0.00 100 1009.7
20260902192004 15 244 3.2 6.4 0.00 0.00 0.00 100 1009.7
20260902191504 15 244 3.2 8.0 0.00 0.00 0.00 100 1009.7
20260902191004 16 244 1.6 8.0 0.00 0.00 0.00 100 1009.5
20260902190504 16 244 1.6 6.4 0.00 0.00 0.00 100 1009.5
20260902190025 16 244 3.2 6.4 0.00 0.00 0.00 100 1009.6
20260902185504 16 244 3.2 8.0 0.00 0.00 0.00 100 1009.6
20260902185004 16 244 3.2 8.0 0.00 0.00 0.00 100 1009.5
20260902184525 16 244 3.2 6.4 0.00 0.00 0.00 100 1009.6
20260902184004 16 244 3.2 11.3 0.00 0.00 0.00 100 1009.5
20260902183504 16 243 4.8 11.3 0.00 0.00 0.00 100 1009.5
20260902183025 16 242 4.8 11.3 0.00 0.00 0.00 100 1009.5
20260902182504 16 235 4.8 11.3 0.00 0.00 0.00 100 1009.4
20260902182004 16 231 4.8 9.7 0.00 0.00 0.00 100 1009.4
20260902181504 16 232 4.8 8.0 0.00 0.00 0.00 100 1009.4
20260902181004 16 232 3.2 8.0 0.00 0.00 0.00 100 1009.3
20260902180504 16 228 3.2 9.7 0.00 0.00 0.00 100 1009.3
20260902180006 16 225 3.2 9.7 0.00 0.00 0.00 100 1009.3
20260902175504 17 233 3.2 8.0 0.00 0.00 0.00 100 1009.2
20260902175004 17 245 1.6 4.8 0.00 0.00 0.00 100 1009.3
20260902174504 17 245 3.2 4.8 0.00 0.00 0.00 100 1009.2
20260902174004 17 245 3.2 8.0 0.00 0.00 0.00 100 1009.2
20260902173504 17 245 3.2 8.0 0.00 0.00 0.00 100 1009.2
20260902173004 17 245 3.2 8.0 0.00 0.00 0.00 100 1009.2
20260902172504 17 245 4.8 12.9 0.00 0.00 0.00 100 1009.1
20260902172004 17 246 4.8 12.9 0.00 0.00 0.00 100 1009.2
20260902171504 18 247 3.2 11.3 0.00 0.00 0.00 100 1009.1
20260902171025 18 247 4.8 12.9 0.00 0.00 0.00 100 1009.1
20260902170504 18 241 6.4 14.5 0.00 0.00 0.00 100 1009.1
20260902170004 18 240 4.8 14.5 0.00 0.00 0.00 100 1009.2
20260902165504 18 247 4.8 12.9 0.00 0.00 0.00 100 1009.1
20260902165004 18 244 4.8 12.9 0.00 0.00 0.00 100 1009.2
20260902164504 18 243 4.8 12.9 0.00 0.00 0.00 100 1009.2
20260902164025 18 246 4.8 14.5 0.00 0.00 0.00 100 1009.1
20260902163504 18 251 4.8 14.5 0.00 0.00 0.00 100 1009.1
20260902163004 18 259 4.8 12.9 0.00 0.00 0.00 100 1009.2
20260902162504 19 258 6.4 20.9 0.00 0.00 0.00 100 1009.2
20260902162004 19 252 8.0 20.9 0.00 0.00 0.00 100 1009.2
20260902161504 19 251 6.4 17.7 0.00 0.00 0.00 100 1009.2
20260902161025 19 253 6.4 16.1 0.00 0.00 0.00 100 1009.2
20260902160525 19 254 9.7 19.3 0.00 0.00 0.00 100 1009.2
20260902160006 19 256 11.3 22.5 0.00 0.00 0.00 100 1009.1
20260902155504 20 253 11.3 22.5 0.00 0.00 0.00 100 1009.0
20260902155004 20 256 12.9 22.5 0.00 0.00 0.00 100 1009.1
20260902154504 20 260 11.3 22.5 0.00 0.00 0.00 100 1009.2
20260902154025 20 258 8.0 22.5 0.00 0.00 0.00 100 1009.1
20260902153504 20 259 8.0 17.7 0.00 0.00 0.00 100 1009.0
20260902153004 20 256 9.7 17.7 0.00 0.00 0.00 100 1009.1
20260902152504 20 257 9.7 20.9 0.00 0.00 0.00 100 1009.1
20260902152004 20 257 12.9 29.0 0.00 0.00 0.00 100 1009.1
20260902151504 20 258 11.3 29.0 0.00 0.00 0.00 100 1009.2
20260902151004 20 265 9.7 24.1 0.00 0.00 0.00 100 1009.2
20260902150504 20 270 11.3 24.1 0.00 0.00 0.00 100 1009.2
20260902150025 21 263 11.3 32.2 0.00 0.00 0.00 100 1009.3
20260902145525 21 256 11.3 32.2 0.00 0.00 0.00 100 1009.2
20260902145004 21 260 11.3 24.1 0.00 0.00 0.00 100 1009.5
20260902144504 21 263 9.7 24.1 0.00 0.00 0.00 100 1009.4
20260902144004 21 260 9.7 22.5 0.00 0.00 0.00 100 1009.3
20260902143504 21 256 11.3 25.7 0.00 0.00 0.00 100 1009.3
20260902143004 21 258 11.3 27.4 0.00 0.00 0.00 100 1009.3
20260902142504 21 263 9.7 27.4 0.00 0.00 0.00 100 1009.2
20260902142004 21 263 11.3 25.7 0.00 0.00 0.00 100 1009.2
20260902141525 21 258 9.7 25.7 0.00 0.00 0.00 100 1009.3
20260902141025 21 253 6.4 16.1 0.00 0.00 0.00 100 1009.3
20260902140504 20 255 8.0 17.7 0.00 0.03 0.00 100 1009.4
20260902140004 20 258 8.0 25.7 0.00 0.03 0.00 100 1009.4
20260902135504 20 260 9.7 25.7 0.00 0.03 0.00 100 1009.5
20260902135003 20 260 6.4 22.5 0.00 0.03 0.00 100 1009.3
20260902134525 20 259 8.0 17.7 0.00 0.03 0.00 100 1009.4
20260902134004 20 258 9.7 25.7 0.00 0.03 0.00 100 1009.3
20260902133504 21 257 8.0 25.7 0.00 0.03 0.00 100 1009.5
20260902133004 21 252 8.0 20.9 0.00 0.03 0.00 100 1009.5
20260902132504 20 255 9.7 22.5 0.00 0.03 0.00 100 1009.5
20260902132025 20 255 9.7 22.5 0.00 0.03 0.00 100 1009.5
20260902131525 20 248 9.7 22.5 0.00 0.03 0.00 100 1009.5
20260902131004 20 248 9.7 20.9 0.00 0.03 0.00 100 1009.4
20260902130503 20 256 11.3 22.5 0.00 0.03 0.00 100 1009.5
20260902130024 19 253 9.7 22.5 0.00 0.03 0.00 100 1009.5
20260902125503 18 233 4.8 17.7 0.00 0.03 0.00 100 1009.6
20260902125024 18 236 4.8 12.9 0.00 0.03 0.00 100 1009.6
20260902124504 18 250 11.3 22.5 0.00 0.03 0.00 100 1009.7
20260902124003 18 252 16.1 33.8 0.00 0.03 0.00 100 1010.0
20260902123503 19 253 14.5 33.8 0.00 0.03 0.00 100 1010.0
20260902123004 19 252 12.9 25.7 0.00 0.03 0.00 100 1009.8
20260902122503 20 249 11.3 24.1 0.00 0.03 0.00 100 1009.7
20260902122003 20 254 9.7 22.5 0.00 0.03 0.00 100 1009.7
20260902121504 20 251 11.3 25.7 0.00 0.03 0.00 100 1009.6
20260902121003 20 246 11.3 25.7 0.00 0.03 0.00 100 1009.8
20260902120503 20 248 9.7 22.5 0.00 0.03 0.00 100 1009.7
20260902120004 20 254 6.4 22.5 0.00 0.03 0.00 100 1009.6
20260902115503 20 256 4.8 17.7 0.00 0.05 0.00 100 1009.8
20260902115004 20 251 4.8 17.7 0.00 0.08 0.00 100 1009.9
20260902114503 20 252 4.8 12.9 0.00 0.20 0.00 100 1009.9
20260902114004 19 258 4.8 12.9 0.00 0.20 0.00 100 1010.0
20260902113504 19 252 8.0 20.9 0.00 0.20 0.00 100 1010.1
20260902113004 19 245 8.0 20.9 0.00 0.20 0.00 100 1010.1
20260902112504 19 243 8.0 17.7 0.00 0.20 0.00 100 1010.1
20260902112003 20 250 9.7 20.9 0.00 0.20 0.00 100 1010.2
20260902111504 20 252 9.7 20.9 0.00 0.20 0.00 100 1010.3
20260902111003 19 247 9.7 20.9 0.00 0.20 0.00 100 1010.3
20260902110503 18 247 9.7 17.7 0.00 0.20 0.00 100 1010.4
20260902110005 18 250 8.0 17.7 0.00 0.20 0.00 100 1010.5
20260902105524 18 252 6.4 17.7 0.00 0.20 0.00 100 1010.7
20260902105024 18 255 6.4 17.7 0.00 0.20 0.00 100 1010.6
20260902104503 18 255 8.0 20.9 0.00 0.20 0.00 100 1010.5
20260902104003 18 244 8.0 20.9 0.00 0.20 0.00 100 1010.7
20260902103503 18 248 8.0 20.9 0.00 0.20 0.00 100 1010.5
20260902103003 18 255 8.0 20.9 0.00 0.20 0.00 100 1010.5
20260902102524 18 254 8.0 20.9 0.00 0.20 0.00 100 1010.5
20260902102004 18 249 6.4 16.1 0.00 0.23 0.00 100 1010.4
20260902101504 18 241 8.0 22.5 0.00 0.23 0.00 100 1010.4
20260902101003 18 247 9.7 22.5 0.00 0.23 0.00 100 1010.4
20260902100524 18 248 9.7 22.5 0.00 0.25 0.00 100 1010.5
20260902100004 18 246 9.7 19.3 0.00 0.43 0.00 100 1010.5
20260902095503 18 248 8.0 19.3 0.00 0.64 0.00 100 1010.5
20260902095003 18 247 6.4 17.7 0.00 0.66 0.00 100 1010.5
20260902094524 18 246 6.4 16.1 0.00 0.66 0.00 100 1010.5
20260902094025 18 245 8.0 14.5 0.00 0.66 0.00 100 1010.6
20260902093503 17 245 6.4 17.7 0.00 0.66 0.00 100 1010.6
20260902093024 18 249 6.4 17.7 0.00 0.66 0.00 100 1010.6
20260902092503 17 246 6.4 17.7 0.00 0.66 0.00 100 1010.6
20260902092003 17 249 6.4 19.3 0.00 0.66 0.00 100 1010.5
20260902091503 17 245 8.0 19.3 0.00 0.66 0.00 100 1010.6
20260902091003 17 248 8.0 19.3 0.00 0.66 0.00 100 1010.6
20260902090503 17 255 8.0 19.3 0.00 0.66 0.00 100 1010.8
20260902090004 17 255 8.0 17.7 0.00 0.66 0.00 100 1010.8
20260902085503 17 251 8.0 20.9 0.00 0.66 0.00 100 1010.7
20260902085003 17 248 6.4 20.9 0.00 0.66 0.00 100 1010.6
20260902084503 17 248 6.4 14.5 0.00 0.66 0.00 100 1010.7
20260902084003 17 246 6.4 19.3 0.00 0.66 0.00 100 1010.6
20260902083503 17 248 8.0 19.3 0.00 0.66 0.00 100 1010.8
20260902083003 17 249 8.0 19.3 0.00 0.66 0.00 100 1010.8
20260902082503 17 248 9.7 20.9 0.00 0.66 0.00 100 1010.7
20260902082003 16 248 9.7 20.9 0.00 0.66 0.00 100 1010.7
20260902081503 17 245 8.0 17.7 0.00 0.66 0.00 100 1010.8
20260902081003 17 249 6.4 17.7 0.00 0.66 0.00 100 1010.7
20260902080503 17 252 6.4 12.9 0.00 0.66 0.00 100 1010.6
20260902080003 17 251 6.4 12.9 0.00 0.66 0.00 100 1010.5
20260902075503 16 252 6.4 14.5 0.00 0.66 0.00 100 1010.5
20260902075024 16 252 6.4 14.5 0.00 0.66 0.00 100 1010.7
20260902074524 16 253 6.4 17.7 0.00 0.66 0.00 100 1010.5
20260902074003 16 254 9.7 22.5 0.00 0.66 0.00 100 1010.6
20260902073503 16 254 9.7 22.5 0.00 0.66 0.00 100 1010.6
20260902073003 16 254 8.0 20.9 0.00 0.66 0.00 100 1010.6
20260902072524 16 252 8.0 17.7 0.00 0.66 0.00 100 1010.5
20260902072003 16 249 8.0 16.1 0.00 0.66 0.00 100 1010.5
20260902071524 15 249 8.0 14.5 0.00 0.66 0.00 100 1010.6
20260902071003 15 247 4.8 14.5 0.00 0.66 0.00 100 1010.5
20260902070503 15 246 4.8 12.9 0.00 0.66 0.00 100 1010.6
20260902070004 15 252 3.2 9.7 0.00 0.66 0.00 100 1010.6
20260902065503 15 261 4.8 12.9 0.00 0.66 0.00 100 1010.6
20260902065003 15 259 4.8 12.9 0.00 0.66 0.00 100 1010.5
20260902064503 15 255 3.2 12.9 0.00 0.66 0.00 100 1010.6
20260902064003 15 254 4.8 14.5 0.00 0.66 0.00 100 1010.6
20260902063503 15 254 4.8 14.5 0.00 0.66 0.00 100 1010.5
20260902063003 15 252 4.8 12.9 0.00 0.66 0.00 100 1010.4
20260902062503 14 249 4.8 12.9 0.00 0.66 0.00 100 1010.5
20260902062003 14 249 4.8 14.5 0.00 0.66 0.00 100 1010.6
20260902061503 14 247 4.8 14.5 0.00 0.66 0.00 100 1010.6
20260902061024 14 247 4.8 14.5 0.00 0.66 0.00 100 1010.5
20260902060503 14 247 4.8 14.5 0.00 0.66 0.00 100 1010.5
20260902060003 13 248 3.2 14.5 0.00 0.66 0.00 100 1010.4
20260902055503 13 249 3.2 8.0 0.00 0.66 0.00 100 1010.4
20260902055003 13 243 3.2 8.0 0.00 0.66 0.00 100 1010.5
20260902054503 13 231 1.6 6.4 0.00 0.66 0.00 100 1010.4
20260902054003 13 215 1.6 6.4 0.00 0.66 0.00 100 1010.5
20260902053503 13 185 1.6 6.4 0.00 0.66 0.00 100 1010.5
20260902053003 13 163 1.6 6.4 0.00 0.66 0.00 100 1010.5
20260902052503 12 163 1.6 6.4 0.00 0.66 0.00 100 1010.4
20260902052003 12 163 0.0 6.4 0.00 0.66 0.00 100 1010.4
20260902051503 12 0 0.0 0.0 0.00 0.66 0.00 100 1010.4
20260902051003 12 0 0.0 0.0 0.00 0.66 0.00 100 1010.3
20260902050503 12 0 0.0 0.0 0.00 0.66 0.00 100 1010.3
20260902050005 12 0 0.0 0.0 0.00 0.66 0.00 100 1010.3
20260902045503 12 0 0.0 0.0 0.00 0.66 0.00 100 1010.4
20260902045024 12 0 0.0 0.0 0.00 0.66 0.00 100 1010.3
20260902044503 12 0 0.0 0.0 0.00 0.66 0.00 100 1010.3
20260902044003 12 0 0.0 0.0 0.00 0.66 0.00 100 1010.3
20260902043503 12 0 0.0 0.0 0.00 0.66 0.00 100 1010.3
20260902043003 12 0 0.0 0.0 0.00 0.66 0.00 100 1010.3
20260902042503 12 0 0.0 0.0 0.00 0.66 0.00 100 1010.4
20260902042003 13 0 0.0 0.0 0.00 0.66 0.00 100 1010.3
20260902041503 13 0 0.0 0.0 0.00 0.66 0.00 100 1010.3
20260902041003 13 0 0.0 0.0 0.00 0.66 0.00 100 1010.2
20260902040524 13 0 0.0 0.0 0.00 0.66 0.00 100 1010.4
20260902040003 13 244 0.0 1.6 0.00 0.66 0.00 100 1010.4
20260902035503 13 244 0.0 1.6 0.00 0.69 0.00 100 1010.5
20260902035003 13 244 1.6 8.0 0.00 0.69 0.00 100 1010.4
20260902034524 13 243 1.6 8.0 0.00 0.69 0.00 100 1010.4
20260902034003 13 242 0.0 4.8 0.00 0.69 0.00 100 1010.5
20260902033503 12 243 0.0 4.8 0.00 0.69 0.00 100 1010.4
20260902033003 12 0 0.0 0.0 0.00 0.69 0.00 100 1010.5
20260902032503 12 242 0.0 3.2 0.00 0.69 0.00 100 1010.5
20260902032003 12 242 0.0 3.2 0.00 0.69 0.00 100 1010.5
20260902031524 13 242 0.0 3.2 0.00 0.69 0.00 100 1010.5
20260902031003 13 242 0.0 3.2 0.00 0.69 0.00 100 1010.5
20260902030503 13 0 0.0 0.0 0.00 0.69 0.00 100 1010.5
20260902030003 13 0 0.0 0.0 0.00 0.69 0.00 100 1010.5
20260902025503 13 0 0.0 0.0 0.00 0.69 0.00 100 1010.6
20260902025003 13 243 0.0 3.2 0.00 0.69 0.00 100 1010.5
20260902024503 13 243 0.0 3.2 0.00 0.69 0.00 100 1010.5
20260902024003 13 242 0.0 3.2 0.00 0.69 0.00 100 1010.5
20260902023524 13 239 1.6 4.8 0.00 0.69 0.00 100 1010.5
20260902023003 13 239 1.6 6.4 0.00 0.69 0.00 100 1010.5
20260902022503 13 245 1.6 6.4 0.00 0.69 0.00 100 1010.4
20260902022024 13 261 1.6 6.4 0.00 0.69 0.00 100 1010.5
20260902021503 13 266 1.6 6.4 0.00 0.69 0.00 100 1010.5
20260902021003 13 260 1.6 6.4 0.00 0.69 0.00 100 1010.5
20260902020503 13 255 0.0 6.4 0.00 0.69 0.00 100 1010.5
20260902020024 13 0 0.0 0.0 0.00 0.69 0.00 100 1010.6
20260902015503 13 255 0.0 3.2 0.00 0.69 0.00 100 1010.6
20260902015003 13 255 1.6 3.2 0.00 0.69 0.00 100 1010.5
20260902014524 13 255 1.6 3.2 0.00 0.69 0.00 100 1010.6
20260902014003 13 255 1.6 4.8 0.00 0.69 0.00 100 1010.5
20260902013503 13 256 1.6 4.8 0.00 0.69 0.00 100 1010.6
20260902013024 14 257 1.6 9.7 0.00 0.69 0.00 100 1010.5
20260902012524 14 257 3.2 9.7 0.00 0.69 0.00 100 1010.5
20260902012003 14 257 3.2 6.4 0.00 0.69 0.00 100 1010.4
20260902011503 14 257 1.6 6.4 0.00 0.69 0.00 100 1010.5
20260902011003 14 258 1.6 6.4 0.00 0.69 0.00 100 1010.5
20260902010503 14 258 1.6 6.4 0.00 0.69 0.00 100 1010.4
20260902010003 14 258 1.6 4.8 0.00 0.69 0.00 100 1010.4
20260902005503 14 253 3.2 9.7 0.00 0.69 0.00 100 1010.4
20260902005024 14 244 3.2 9.7 0.00 0.69 0.00 100 1010.4
20260902004503 14 229 3.2 8.0 0.00 0.69 0.00 100 1010.3
20260902004003 14 226 1.6 6.4 0.00 0.69 0.00 100 1010.4
20260902003524 14 225 0.0 6.4 0.00 0.69 0.00 100 1010.2
20260902003003 14 0 0.0 0.0 0.00 0.69 0.00 100 1010.3
20260902002503 14 0 0.0 0.0 0.00 0.69 0.00 100 1010.3
20260902002004 14 0 0.0 0.0 0.00 0.69 0.00 100 1010.2
20260902001504 14 0 0.0 0.0 0.00 0.69 0.00 100 1010.2
20260902001004 14 0 0.0 0.0 0.00 0.69 0.00 100 1010.2
20260902000504 14 0 0.0 0.0 0.00 0.69 0.00 100 1010.2
20260902000004 14 0 0.0 0.0 0.00 0.69 0.00 100 1010.2
20260901235504 14 225 0.0 3.2 0.00 0.69 0.00 100 1010.2